TimeCST,TemperatureF,Dew PointF,Humidity,Sea Level PressureIn,VisibilityMPH,Wind Direction,Wind SpeedMPH,Gust SpeedMPH,PrecipitationIn,Events,Conditions,WindDirDegrees,DateUTC
12:53 AM,59.0,53.1,81,30.24,10.0,Calm,Calm,-,N/A,,Clear,0,2012-11-18 06:53:00
1:53 AM,59.0,52.0,78,30.23,10.0,Calm,Calm,-,N/A,,Clear,0,2012-11-18 07:53:00
2:53 AM,57.0,52.0,83,30.22,10.0,Calm,Calm,-,N/A,,Clear,0,2012-11-18 08:53:00
3:53 AM,55.9,51.1,84,30.21,10.0,North,3.5,-,N/A,,Clear,350,2012-11-18 09:53:00
4:53 AM,55.9,51.1,84,30.21,10.0,North,3.5,-,N/A,,Clear,360,2012-11-18 10:53:00
5:53 AM,57.0,52.0,83,30.21,10.0,Calm,Calm,-,N/A,,Clear,0,2012-11-18 11:53:00
6:53 AM,55.9,51.1,84,30.22,10.0,Calm,Calm,-,N/A,,Clear,0,2012-11-18 12:53:00
7:53 AM,59.0,53.1,81,30.23,10.0,North,3.5,-,N/A,,Overcast,360,2012-11-18 13:53:00
8:53 AM,64.0,54.0,70,30.24,10.0,East,3.5,-,N/A,,Overcast,90,2012-11-18 14:53:00
9:53 AM,70.0,55.0,59,30.24,10.0,East,6.9,-,N/A,,Overcast,100,2012-11-18 15:53:00
10:53 AM,73.9,54.0,50,30.23,10.0,East,12.7,-,N/A,,Overcast,90,2012-11-18 16:53:00
11:53 AM,75.9,55.0,48,30.21,10.0,East,12.7,-,N/A,,Mostly Cloudy,100,2012-11-18 17:53:00
12:53 PM,78.1,55.0,45,30.17,10.0,SE,13.8,19.6,N/A,,Overcast,140,2012-11-18 18:53:00
1:53 PM,77.0,55.0,47,30.15,10.0,SE,11.5,-,N/A,,Overcast,130,2012-11-18 19:53:00
2:53 PM,78.1,55.0,45,30.14,10.0,ESE,12.7,-,N/A,,Overcast,110,2012-11-18 20:53:00
3:53 PM,77.0,55.0,47,30.14,10.0,ESE,11.5,-,N/A,,Overcast,110,2012-11-18 21:53:00
4:53 PM,75.0,55.0,50,30.15,10.0,East,10.4,-,N/A,,Overcast,90,2012-11-18 22:53:00
5:53 PM,73.9,55.0,52,30.17,10.0,East,9.2,-,N/A,,Overcast,100,2012-11-18 23:53:00
6:53 PM,72.0,55.0,55,30.18,10.0,ESE,11.5,-,N/A,,Mostly Cloudy,110,2012-11-19 00:53:00
7:53 PM,70.0,54.0,57,30.20,10.0,ESE,9.2,-,N/A,,Partly Cloudy,110,2012-11-19 01:53:00
8:53 PM,69.1,54.0,58,30.21,10.0,ESE,9.2,-,N/A,,Clear,110,2012-11-19 02:53:00
9:53 PM,68.0,55.0,63,30.21,10.0,ESE,10.4,-,N/A,,Clear,110,2012-11-19 03:53:00
10:53 PM,66.9,55.9,68,30.20,10.0,East,6.9,-,N/A,,Clear,100,2012-11-19 04:53:00
11:53 PM,66.0,55.9,70,30.19,10.0,ESE,6.9,-,N/A,,Clear,110,2012-11-19 05:53:00